DW6757 Weather Reports


Display with metric or nautical units.
time (UTC)temp
F
wind
direction
speed
MPH
gust
MPH
rain 1hr
in
rain 24hr
in
rain mn
in
humidity
%
barometer
mb
20260508222526 76 71 3.0 6.0 0.00 0.00 0.00 83 1009.0
20260508222004 76 63 2.0 4.0 0.00 0.00 0.00 83 1009.1
20260508221504 76 63 2.0 4.0 0.00 0.00 0.00 84 1009.0
20260508221026 76 82 2.0 6.0 0.00 0.00 0.00 83 1009.2
20260508220505 76 82 3.0 8.0 0.00 0.00 0.00 84 1009.3
20260508220006 76 87 2.0 8.0 0.00 0.00 0.00 83 1009.2
20260508215504 76 94 2.0 6.0 0.00 0.00 0.00 84 1009.3
20260508215025 76 91 3.0 8.0 0.00 0.00 0.00 84 1009.4
20260508214504 76 104 3.0 8.0 0.00 0.00 0.00 84 1009.4
20260508214004 76 106 2.0 6.0 0.00 0.00 0.00 83 1009.4
20260508213504 76 88 3.0 6.0 0.00 0.00 0.00 83 1009.4
20260508213026 76 82 3.0 7.0 0.00 0.00 0.00 83 1009.4
20260508212504 76 83 3.0 7.0 0.00 0.00 0.00 82 1009.6
20260508212004 76 91 2.0 6.0 0.00 0.00 0.00 82 1009.7
20260508211504 76 89 2.0 8.0 0.00 0.00 0.00 83 1009.7
20260508211004 76 96 2.0 8.0 0.00 0.00 0.00 83 1009.7
20260508210505 75 94 3.0 8.0 0.00 0.00 0.00 82 1009.9
20260508210026 75 82 5.0 9.0 0.00 0.00 0.00 83 1010.0
20260508205504 75 77 5.0 9.0 0.00 0.00 0.00 82 1010.0
20260508205004 75 78 5.0 9.0 0.00 0.00 0.00 83 1010.1
20260508204525 75 78 4.0 9.0 0.00 0.00 0.00 82 1010.1
20260508204005 75 82 2.0 6.0 0.00 0.00 0.00 83 1010.1
20260508203504 74 86 3.0 10.0 0.00 0.00 0.00 82 1010.2
20260508203004 74 82 4.0 10.0 0.00 0.00 0.00 82 1010.2
20260508202504 74 84 4.0 8.0 0.00 0.00 0.00 82 1010.3
20260508202004 75 80 4.0 8.0 0.00 0.00 0.00 82 1010.4
20260508201504 74 81 4.0 9.0 0.00 0.00 0.00 81 1010.5
20260508201004 75 81 4.0 9.0 0.00 0.00 0.00 82 1010.5
20260508200504 74 79 4.0 9.0 0.00 0.00 0.00 81 1010.5
20260508200005 75 80 3.0 8.0 0.00 0.00 0.00 80 1010.5
20260508195504 74 75 3.0 7.0 0.00 0.00 0.00 81 1010.5
20260508195005 74 76 2.0 6.0 0.00 0.00 0.00 81 1010.5
20260508194504 74 81 2.0 7.0 0.00 0.00 0.00 81 1010.7
20260508194004 74 92 2.0 7.0 0.00 0.00 0.00 80 1010.8
20260508193525 74 98 2.0 5.0 0.00 0.00 0.00 80 1010.8
20260508193004 74 90 3.0 6.0 0.00 0.00 0.00 80 1010.8
20260508192504 74 90 3.0 8.0 0.00 0.00 0.00 80 1010.8
20260508192004 73 75 3.0 8.0 0.00 0.00 0.00 80 1010.8
20260508191504 73 68 3.0 8.0 0.00 0.00 0.00 79 1010.9
20260508191004 73 77 3.0 8.0 0.00 0.00 0.00 81 1011.0
20260508190504 73 82 3.0 7.0 0.00 0.00 0.00 80 1011.0
20260508190004 72 85 3.0 7.0 0.00 0.00 0.00 80 1011.2
20260508185505 72 85 2.0 7.0 0.00 0.00 0.00 80 1011.3
20260508185004 72 78 2.0 6.0 0.00 0.00 0.00 81 1011.3
20260508184504 72 81 2.0 5.0 0.00 0.00 0.00 81 1011.5
20260508184025 71 88 2.0 5.0 0.00 0.00 0.00 80 1011.6
20260508183504 71 97 2.0 4.0 0.00 0.00 0.00 80 1011.5
20260508183004 71 93 1.0 5.0 0.00 0.00 0.00 80 1011.7
20260508182505 71 81 2.0 5.0 0.00 0.00 0.00 80 1011.8
20260508182004 71 61 1.0 3.0 0.00 0.00 0.00 79 1011.8
20260508181504 71 76 1.0 3.0 0.00 0.00 0.00 79 1011.9
20260508181025 71 122 0.0 2.0 0.00 0.00 0.00 79 1012.0
20260508180504 71 80 1.0 3.0 0.00 0.00 0.00 80 1012.2
20260508180025 70 63 1.0 3.0 0.00 0.00 0.00 80 1012.2
20260508175505 70 61 2.0 5.0 0.00 0.00 0.00 79 1012.2
20260508175004 70 72 3.0 5.0 0.00 0.00 0.00 79 1012.2
20260508174504 70 64 3.0 5.0 0.00 0.00 0.00 79 1012.2
20260508174004 70 48 2.0 5.0 0.00 0.00 0.00 79 1012.1
20260508173525 70 59 2.0 5.0 0.00 0.00 0.00 79 1012.3
20260508173025 70 63 2.0 6.0 0.00 0.00 0.00 79 1012.3
20260508172504 70 40 2.0 6.0 0.00 0.00 0.00 78 1012.3
20260508172004 70 31 3.0 5.0 0.00 0.00 0.00 78 1012.3
20260508171504 70 41 2.0 4.0 0.00 0.00 0.00 80 1012.3
20260508171004 69 54 2.0 4.0 0.00 0.00 0.00 79 1012.6
20260508170504 69 61 3.0 7.0 0.00 0.00 0.00 80 1012.5
20260508170004 69 56 4.0 7.0 0.00 0.00 0.00 79 1012.5
20260508165525 68 59 4.0 8.0 0.00 0.00 0.00 79 1012.5
20260508165006 68 61 3.0 8.0 0.00 0.00 0.00 79 1012.7
20260508164504 68 44 2.0 6.0 0.00 0.00 0.00 80 1012.8
20260508164004 68 53 3.0 7.0 0.00 0.00 0.00 81 1012.9
20260508163505 68 49 3.0 7.0 0.00 0.00 0.00 80 1012.9
20260508163004 67 41 2.0 5.0 0.00 0.00 0.00 80 1012.9
20260508162525 67 52 2.0 7.0 0.00 0.00 0.00 81 1012.9
20260508162004 67 53 3.0 7.0 0.00 0.00 0.00 81 1012.9
20260508161504 67 38 3.0 6.0 0.00 0.00 0.00 80 1012.9
20260508161004 67 36 2.0 5.0 0.00 0.00 0.00 81 1013.2
20260508160504 66 41 2.0 4.0 0.00 0.00 0.00 81 1013.2
20260508160004 66 33 2.0 5.0 0.00 0.00 0.00 81 1013.2
20260508155505 66 37 2.0 5.0 0.00 0.00 0.00 81 1013.3
20260508155004 66 58 2.0 4.0 0.00 0.00 0.00 81 1013.4
20260508154505 66 56 2.0 4.0 0.00 0.00 0.00 81 1013.6
20260508154004 66 34 2.0 4.0 0.00 0.00 0.00 80 1013.7
20260508153526 66 41 2.0 5.0 0.00 0.00 0.00 80 1013.8
20260508153005 66 45 2.0 5.0 0.00 0.00 0.00 81 1013.8
20260508152504 66 36 3.0 8.0 0.00 0.00 0.00 81 1013.8
20260508152004 66 43 3.0 8.0 0.00 0.00 0.00 81 1013.7
20260508151504 66 56 3.0 5.0 0.00 0.00 0.00 81 1013.9
20260508151004 66 53 2.0 5.0 0.00 0.00 0.00 82 1013.9
20260508150504 65 36 2.0 5.0 0.00 0.00 0.00 82 1014.0
20260508150005 65 22 3.0 6.0 0.00 0.00 0.00 82 1014.0
20260508145526 65 24 3.0 6.0 0.00 0.00 0.00 82 1014.0
20260508145005 65 36 2.0 6.0 0.00 0.00 0.00 82 1014.2
20260508144504 65 46 2.0 6.0 0.00 0.00 0.00 82 1014.2
20260508144004 65 48 3.0 8.0 0.00 0.00 0.00 82 1014.2
20260508143504 64 48 3.0 8.0 0.00 0.00 0.00 83 1014.1
20260508143025 64 52 3.0 7.0 0.00 0.00 0.00 83 1014.1
20260508142504 64 50 3.0 7.0 0.00 0.00 0.00 82 1014.3
20260508142004 64 44 2.0 5.0 0.00 0.00 0.00 82 1014.2
20260508141504 64 43 3.0 10.0 0.00 0.00 0.00 82 1014.2
20260508141004 64 48 3.0 10.0 0.00 0.00 0.00 82 1014.1
20260508140504 64 45 3.0 12.0 0.00 0.00 0.00 82 1013.9
20260508140004 64 38 4.0 12.0 0.00 0.00 0.00 82 1013.8
20260508135525 64 36 4.0 9.0 0.00 0.00 0.00 82 1013.9
20260508135004 64 27 3.0 7.0 0.00 0.00 0.00 82 1014.0
20260508134504 64 27 3.0 9.0 0.00 0.00 0.00 82 1013.9
20260508134025 64 27 3.0 9.0 0.00 0.00 0.00 82 1014.0
20260508133504 64 29 3.0 9.0 0.00 0.00 0.00 82 1014.0
20260508133025 64 21 2.0 8.0 0.00 0.00 0.00 82 1013.9
20260508132504 64 10 3.0 5.0 0.00 0.00 0.00 82 1014.0
20260508132004 64 19 3.0 6.0 0.00 0.00 0.00 82 1014.1
20260508131504 64 36 2.0 6.0 0.00 0.00 0.00 82 1014.1
20260508131004 64 32 2.0 5.0 0.00 0.00 0.00 82 1014.1
20260508130525 63 24 2.0 5.0 0.00 0.00 0.00 82 1014.1
20260508130004 63 18 1.0 4.0 0.00 0.00 0.00 83 1014.0
20260508125504 63 26 2.0 4.0 0.00 0.00 0.00 83 1014.0
20260508125025 63 34 1.0 3.0 0.00 0.00 0.00 83 1014.0
20260508124504 63 24 1.0 3.0 0.00 0.00 0.00 83 1014.0
20260508124004 63 29 0.0 3.0 0.00 0.00 0.00 83 1014.2
20260508123504 63 49 1.0 3.0 0.00 0.00 0.00 83 1014.1
20260508123005 63 58 1.0 3.0 0.00 0.00 0.00 83 1014.3
20260508122504 63 52 2.0 4.0 0.00 0.00 0.00 83 1014.0
20260508122004 62 54 2.0 4.0 0.00 0.00 0.00 83 1013.9
20260508121504 62 47 2.0 4.0 0.00 0.00 0.00 83 1014.0
20260508121025 62 38 2.0 8.0 0.00 0.00 0.00 84 1014.0
20260508120504 62 40 2.0 8.0 0.00 0.00 0.00 84 1013.9
20260508120026 62 39 1.0 4.0 0.00 0.00 0.00 85 1013.7
20260508115504 62 38 2.0 5.0 0.00 0.00 0.00 85 1013.7
20260508115004 62 45 2.0 5.0 0.00 0.00 0.00 84 1013.8
20260508114504 62 37 1.0 4.0 0.00 0.00 0.00 84 1013.8
20260508114004 63 46 2.0 5.0 0.00 0.00 0.00 83 1013.8
20260508113504 63 55 1.0 5.0 0.00 0.00 0.00 82 1013.9
20260508113025 63 46 1.0 3.0 0.00 0.00 0.00 81 1014.3
20260508112504 63 32 2.0 5.0 0.00 0.00 0.00 81 1014.4
20260508112004 63 12 2.0 6.0 0.00 0.00 0.00 80 1014.6
20260508111504 63 6 1.0 6.0 0.00 0.00 0.00 80 1014.8
20260508111025 63 12 2.0 5.0 0.00 0.00 0.00 80 1014.8
20260508110504 63 13 3.0 8.0 0.00 0.00 0.00 80 1014.7
20260508110004 63 23 3.0 8.0 0.00 0.00 0.00 79 1014.5
20260508105504 63 30 3.0 6.0 0.00 0.00 0.00 79 1014.0
20260508105004 64 23 3.0 6.0 0.00 0.00 0.00 79 1014.3
20260508104504 63 17 2.0 6.0 0.00 0.00 0.00 79 1014.2
20260508104025 63 13 2.0 5.0 0.00 0.00 0.00 79 1014.0
20260508103504 63 13 2.0 5.0 0.00 0.00 0.00 80 1014.0
20260508103004 63 21 2.0 5.0 0.00 0.00 0.00 80 1014.0
20260508102504 63 45 3.0 6.0 0.00 0.00 0.00 80 1013.7
20260508102004 63 75 3.0 8.0 0.00 0.00 0.00 80 1013.7
20260508101525 63 81 4.0 8.0 0.00 0.00 0.00 79 1013.6
20260508101004 63 85 4.0 8.0 0.00 0.00 0.00 79 1013.5
20260508100504 63 86 3.0 8.0 0.00 0.00 0.00 79 1013.2
20260508100004 63 84 3.0 7.0 0.00 0.00 0.00 79 1013.4
20260508095504 63 84 3.0 7.0 0.00 0.00 0.00 78 1013.6
20260508095004 64 75 3.0 7.0 0.00 0.00 0.00 78 1014.0
20260508094504 64 59 2.0 5.0 0.00 0.00 0.00 77 1014.2
20260508094004 64 41 2.0 5.0 0.00 0.00 0.00 77 1014.3
20260508093504 64 35 2.0 4.0 0.00 0.00 0.00 77 1014.4
20260508093004 64 33 3.0 7.0 0.00 0.00 0.00 77 1014.4
20260508092504 64 26 2.0 7.0 0.00 0.00 0.00 77 1014.5
20260508092004 64 23 2.0 4.0 0.00 0.00 0.00 77 1014.5
20260508091504 64 24 1.0 4.0 0.00 0.00 0.00 77 1014.7
20260508091003 64 21 1.0 4.0 0.00 0.00 0.00 77 1014.8
20260508090503 64 4 1.0 5.0 0.00 0.00 0.00 77 1014.8
20260508090004 64 13 2.0 5.0 0.00 0.00 0.00 76 1014.7
20260508085525 64 18 2.0 5.0 0.00 0.00 0.00 76 1014.5
20260508085004 64 37 2.0 4.0 0.00 0.00 0.00 76 1014.1
20260508084525 64 59 3.0 5.0 0.00 0.00 0.00 76 1013.9
20260508084004 64 66 2.0 5.0 0.00 0.00 0.00 76 1013.8
20260508083504 64 56 3.0 9.0 0.00 0.00 0.00 77 1013.8
20260508083004 64 41 3.0 9.0 0.00 0.00 0.00 76 1013.5
20260508082504 64 21 2.0 5.0 0.00 0.00 0.00 76 1014.2
20260508082004 64 15 2.0 5.0 0.00 0.00 0.00 76 1014.5
20260508081504 64 14 2.0 5.0 0.00 0.00 0.00 77 1014.4
20260508081025 64 14 2.0 5.0 0.00 0.00 0.00 77 1014.4
20260508080504 64 10 2.0 5.0 0.00 0.00 0.00 77 1014.5
20260508080004 64 13 2.0 5.0 0.00 0.00 0.00 77 1014.6
20260508075525 64 15 1.0 5.0 0.00 0.00 0.00 77 1014.7
20260508075025 64 360 1.0 4.0 0.00 0.00 0.00 77 1014.7
20260508074504 64 16 1.0 4.0 0.00 0.00 0.00 77 1014.9
20260508074004 64 14 1.0 6.0 0.00 0.00 0.00 77 1014.9
20260508073504 64 15 3.0 6.0 0.00 0.00 0.00 77 1014.7
20260508073004 64 32 2.0 6.0 0.00 0.00 0.00 76 1014.6
20260508072504 64 38 2.0 6.0 0.00 0.00 0.00 76 1014.5
20260508072025 64 23 2.0 8.0 0.00 0.00 0.00 76 1014.6
20260508071504 64 29 3.0 8.0 0.00 0.00 0.00 76 1014.8
20260508071003 64 20 2.0 6.0 0.00 0.00 0.00 76 1014.7
20260508070525 64 11 2.0 6.0 0.00 0.00 0.00 76 1014.9
20260508070004 64 44 2.0 5.0 0.00 0.00 0.00 76 1014.8
20260508065504 64 63 1.0 5.0 0.00 0.00 0.00 76 1014.5
20260508065025 64 23 1.0 4.0 0.00 0.00 0.00 76 1014.9
20260508064504 64 49 2.0 7.0 0.00 0.00 0.00 76 1014.7
20260508064004 64 61 4.0 8.0 0.00 0.00 0.00 76 1014.2
20260508063503 64 57 4.0 8.0 0.00 0.00 0.00 76 1013.9
20260508063003 64 58 3.0 8.0 0.00 0.00 0.00 76 1014.1
20260508062504 64 65 3.0 7.0 0.00 0.00 0.00 76 1014.4
20260508062004 64 66 2.0 6.0 0.00 0.00 0.00 76 1014.6
20260508061524 64 57 2.0 6.0 0.00 0.00 0.00 76 1014.9
20260508061025 64 42 1.0 4.0 0.00 0.00 0.00 77 1015.2
20260508060504 64 57 2.0 5.0 0.00 0.00 0.00 77 1015.3
20260508060004 64 58 1.0 5.0 0.00 0.00 0.00 77 1015.7
20260508055504 64 342 0.0 2.0 0.00 0.00 0.00 77 1016.0
20260508055004 64 40 0.0 2.0 0.00 0.00 0.00 77 1016.5
20260508054503 64 334 0.0 3.0 0.00 0.00 0.00 77 1016.2
20260508054004 64 10 1.0 3.0 0.00 0.00 0.00 77 1016.1
20260508053504 64 18 1.0 4.0 0.00 0.00 0.00 77 1016.1
20260508053003 64 8 1.0 4.0 0.00 0.00 0.00 77 1015.9
20260508052504 64 327 1.0 4.0 0.00 0.00 0.00 76 1016.1
20260508052003 64 334 1.0 5.0 0.00 0.00 0.00 76 1016.3
20260508051504 64 8 2.0 5.0 0.00 0.00 0.00 76 1015.9
20260508051004 64 38 2.0 6.0 0.00 0.00 0.00 76 1015.2
20260508050525 64 50 2.0 6.0 0.00 0.00 0.00 76 1014.8
20260508050004 64 44 2.0 7.0 0.00 0.00 0.00 77 1014.5
20260508045504 63 59 3.0 8.0 0.00 0.00 0.00 77 1014.4
20260508045004 63 73 4.0 10.0 0.00 0.00 0.00 76 1014.1
20260508044504 63 69 3.0 10.0 0.00 0.00 0.00 76 1014.2
20260508044003 64 60 3.0 9.0 0.00 0.00 0.00 76 1014.3
20260508043503 64 53 2.0 7.0 0.00 0.00 0.00 76 1014.3
20260508043004 64 44 2.0 5.0 0.00 0.00 0.00 76 1014.4
20260508042504 64 41 3.0 7.0 0.00 0.00 0.00 76 1014.6
20260508042004 64 41 2.0 8.0 0.00 0.00 0.00 75 1014.8
20260508041504 64 46 2.0 8.0 0.00 0.00 0.00 75 1015.1
20260508041025 64 48 2.0 7.0 0.00 0.00 0.00 75 1015.1
20260508040503 64 39 3.0 7.0 0.00 0.00 0.00 75 1014.9
20260508040004 64 32 2.0 7.0 0.00 0.00 0.00 74 1015.1
20260508035504 64 18 2.0 5.0 0.00 0.00 0.00 75 1015.3
20260508035025 64 12 3.0 8.0 0.00 0.00 0.00 75 1015.6
20260508034525 64 16 2.0 8.0 0.00 0.00 0.00 75 1015.5
20260508034004 64 18 2.0 6.0 0.00 0.00 0.00 76 1015.5
20260508033503 64 12 2.0 7.0 0.00 0.00 0.00 76 1015.6
20260508033003 64 2 2.0 7.0 0.00 0.00 0.00 76 1015.7
20260508032504 64 357 1.0 7.0 0.00 0.00 0.00 76 1015.8
20260508032004 64 2 1.0 4.0 0.00 0.00 0.00 76 1015.8
20260508031504 64 4 1.0 4.0 0.00 0.00 0.00 76 1015.6
20260508031004 64 11 0.0 3.0 0.00 0.00 0.00 76 1015.7
20260508030504 65 18 1.0 4.0 0.00 0.00 0.00 75 1015.6
20260508030005 65 1 2.0 5.0 0.00 0.00 0.00 75 1015.3
20260508025503 65 3 2.0 5.0 0.00 0.00 0.00 74 1015.3
20260508025005 65 16 2.0 5.0 0.00 0.00 0.00 74 1015.0
20260508024503 65 21 2.0 5.0 0.00 0.00 0.00 74 1015.0
20260508024004 65 30 2.0 4.0 0.00 0.00 0.00 74 1014.9
20260508023504 65 18 2.0 5.0 0.00 0.00 0.00 74 1014.7
20260508023004 65 7 2.0 5.0 0.00 0.00 0.00 74 1014.7
20260508022503 65 11 1.0 4.0 0.00 0.00 0.00 74 1014.9
20260508022004 65 47 1.0 3.0 0.00 0.00 0.00 73 1014.9
20260508021503 66 39 2.0 5.0 0.00 0.00 0.00 73 1014.5
20260508021025 66 28 3.0 5.0 0.00 0.00 0.00 73 1014.3
20260508020503 66 22 2.0 6.0 0.00 0.00 0.00 73 1014.2
20260508020004 66 36 2.0 6.0 0.00 0.00 0.00 73 1014.3
20260508015504 66 45 3.0 7.0 0.00 0.00 0.00 73 1013.8
20260508015003 66 37 3.0 7.0 0.00 0.00 0.00 73 1014.0
20260508014504 66 40 2.0 7.0 0.00 0.00 0.00 73 1014.3
20260508014004 66 54 2.0 7.0 0.00 0.00 0.00 72 1014.0
20260508013504 66 73 4.0 11.0 0.00 0.00 0.00 73 1013.8
20260508013004 66 80 6.0 13.0 0.00 0.00 0.00 72 1013.5
20260508012503 66 82 7.0 13.0 0.00 0.00 0.00 72 1013.1
20260508012004 66 81 7.0 12.0 0.00 0.00 0.00 71 1012.9
20260508011503 66 77 5.0 11.0 0.00 0.00 0.00 71 1013.2
20260508011003 66 69 4.0 10.0 0.00 0.00 0.00 71 1013.3
20260508010504 66 74 6.0 13.0 0.00 0.00 0.00 70 1013.4
20260508010004 66 79 8.0 14.0 0.00 0.00 0.00 70 1012.8
20260508005503 67 76 8.0 15.0 0.00 0.00 0.00 69 1013.1
20260508005025 67 75 8.0 16.0 0.00 0.00 0.00 69 1013.3
20260508004504 67 76 7.0 16.0 0.00 0.00 0.00 68 1013.6
20260508004004 67 69 5.0 11.0 0.00 0.00 0.00 68 1013.9
20260508003504 67 58 5.0 12.0 0.00 0.00 0.00 67 1014.2
20260508003005 67 43 5.0 13.0 0.00 0.00 0.00 67 1014.5
20260508002504 68 46 5.0 13.0 0.00 0.00 0.00 67 1014.4
20260508002004 68 52 4.0 9.0 0.00 0.00 0.00 67 1014.7
20260508001505 68 39 5.0 12.0 0.00 0.00 0.00 67 1014.8
20260508001005 68 34 6.0 12.0 0.00 0.00 0.00 66 1015.0
20260508000504 68 35 5.0 12.0 0.00 0.00 0.00 66 1015.0
20260508000005 68 34 4.0 11.0 0.00 0.00 0.00 66 1015.3
20260507235525 69 34 4.0 10.0 0.00 0.00 0.00 66 1015.3
20260507235004 68 37 4.0 10.0 0.00 0.00 0.00 67 1015.3
20260507234505 68 38 4.0 9.0 0.00 0.00 0.00 67 1015.3
20260507234005 68 38 4.0 11.0 0.00 0.00 0.00 68 1015.3
20260507233504 68 36 5.0 11.0 0.00 0.00 0.00 67 1015.3
20260507233004 68 34 5.0 12.0 0.00 0.00 0.00 68 1015.2
20260507232525 68 32 5.0 12.0 0.00 0.00 0.00 68 1015.3
20260507232005 68 35 4.0 11.0 0.00 0.00 0.00 68 1015.2
20260507231505 68 41 5.0 10.0 0.00 0.00 0.00 68 1015.1
20260507231005 67 39 4.0 10.0 0.00 0.00 0.00 68 1015.0
20260507230504 67 39 4.0 9.0 0.00 0.00 0.00 68 1015.1
20260507230005 68 38 4.0 11.0 0.00 0.00 0.00 69 1015.2
20260507225504 67 41 4.0 11.0 0.00 0.00 0.00 69 1015.4
20260507225026 67 47 4.0 12.0 0.00 0.00 0.00 68 1015.5
20260507224505 68 42 4.0 12.0 0.00 0.00 0.00 68 1015.7
20260507224005 68 32 4.0 10.0 0.00 0.00 0.00 69 1015.5
20260507223504 68 38 4.0 10.0 0.00 0.00 0.00 68 1015.5
20260507223005 68 36 4.0 10.0 0.00 0.00 0.00 68 1015.4